HBAOC LSGG-LSGT

Flight info

Callsign HBAOC
Flight time 0h 27m
Altitude 6500
Route MONTREUX BULLE
Aircraft P28A/L-SDEFGHY/L

Departure

Time 2026-05-07 19:26
Airport Geneva International Airport (LSGG)

Arrival

Time 2026-05-07 19:53
Airport La Gruyère Airfield (LSGT)
Time Latitude Longitude Altitude Speed Heading
2026-05-07 19:11 46.23374 6.09736 1395 ft 0 kts 46°
2026-05-07 19:16 46.23380 6.09752 1395 ft 5 kts 81°
2026-05-07 19:16 46.23350 6.09775 1395 ft 5 kts 166°
2026-05-07 19:16 46.23330 6.09815 1395 ft 8 kts 89°
2026-05-07 19:16 46.23378 6.09892 1396 ft 14 kts 45°
2026-05-07 19:17 46.23393 6.09947 1398 ft 8 kts 131°
2026-05-07 19:17 46.23359 6.09994 1397 ft 0 kts 115°
2026-05-07 19:17 46.23358 6.09996 1398 ft 1 kts 121°
2026-05-07 19:22 46.23340 6.10022 1401 ft 0 kts 128°
2026-05-07 19:23 46.23338 6.10042 1397 ft 9 kts 79°
2026-05-07 19:23 46.23303 6.10133 1394 ft 10 kts 124°
2026-05-07 19:24 46.23317 6.10179 1396 ft 0 kts 47°
2026-05-07 19:25 46.23424 6.10334 1387 ft 51 kts 46°
2026-05-07 19:25 46.23771 6.10856 1461 ft 84 kts 44°
2026-05-07 19:25 46.24218 6.11527 1612 ft 101 kts 45°
2026-05-07 19:25 46.24725 6.12305 1778 ft 113 kts 45°
2026-05-07 19:26 46.25213 6.13196 1982 ft 113 kts 64°
2026-05-07 19:26 46.25297 6.14300 2215 ft 110 kts 91°
2026-05-07 19:26 46.25178 6.15393 2481 ft 107 kts 96°
2026-05-07 19:26 46.25228 6.16367 2789 ft 96 kts 57°
2026-05-07 19:27 46.25558 6.17168 2996 ft 99 kts 59°
2026-05-07 19:27 46.25940 6.18102 3005 ft 116 kts 56°
2026-05-07 19:27 46.26430 6.19096 3011 ft 126 kts 53°
2026-05-07 19:27 46.26955 6.20147 3011 ft 131 kts 54°
2026-05-07 19:28 46.27496 6.21229 3008 ft 134 kts 54°
2026-05-07 19:28 46.28044 6.22332 3007 ft 135 kts 53°
2026-05-07 19:28 46.28591 6.23439 3008 ft 135 kts 54°
2026-05-07 19:28 46.29109 6.24484 3000 ft 119 kts 54°
2026-05-07 19:29 46.29578 6.25427 2989 ft 112 kts 54°
2026-05-07 19:29 46.30019 6.26319 2991 ft 109 kts 54°
2026-05-07 19:29 46.30479 6.27231 2998 ft 115 kts 54°
2026-05-07 19:29 46.30956 6.28189 3002 ft 119 kts 54°
2026-05-07 19:30 46.31435 6.29164 3001 ft 119 kts 54°
2026-05-07 19:30 46.31923 6.30139 3007 ft 120 kts 54°
2026-05-07 19:30 46.32415 6.31126 3012 ft 122 kts 54°
2026-05-07 19:30 46.32890 6.32143 3013 ft 122 kts 58°
2026-05-07 19:31 46.33327 6.33188 3015 ft 122 kts 58°
2026-05-07 19:31 46.33765 6.34236 3015 ft 121 kts 58°
2026-05-07 19:31 46.34196 6.35278 3019 ft 121 kts 58°
2026-05-07 19:31 46.34634 6.36330 3018 ft 122 kts 58°
2026-05-07 19:32 46.34928 6.37023 3018 ft 121 kts 58°
2026-05-07 19:32 46.35365 6.38060 3019 ft 121 kts 58°
2026-05-07 19:32 46.35795 6.39105 3019 ft 121 kts 58°
2026-05-07 19:32 46.36227 6.40148 3018 ft 121 kts 58°
2026-05-07 19:33 46.36656 6.41192 3016 ft 120 kts 58°
2026-05-07 19:33 46.37083 6.42227 3017 ft 121 kts 58°
2026-05-07 19:33 46.37546 6.43335 3006 ft 134 kts 57°
2026-05-07 19:33 46.38047 6.44519 3017 ft 141 kts 58°
2026-05-07 19:34 46.38570 6.45752 3018 ft 145 kts 57°
2026-05-07 19:34 46.39098 6.47009 3023 ft 147 kts 58°
2026-05-07 19:34 46.39621 6.48283 3025 ft 147 kts 58°
2026-05-07 19:34 46.40106 6.49574 3021 ft 146 kts 65°
2026-05-07 19:35 46.40456 6.50953 3021 ft 147 kts 68°
2026-05-07 19:35 46.40804 6.52343 3027 ft 147 kts 69°
2026-05-07 19:35 46.41149 6.53683 3228 ft 136 kts 68°
2026-05-07 19:35 46.41459 6.54925 3471 ft 127 kts 69°
2026-05-07 19:36 46.41760 6.56099 3710 ft 122 kts 68°
2026-05-07 19:36 46.42053 6.57228 3952 ft 118 kts 68°
2026-05-07 19:36 46.42346 6.58326 4197 ft 115 kts 67°
2026-05-07 19:36 46.42660 6.59385 4444 ft 113 kts 66°
2026-05-07 19:37 46.42971 6.60413 4689 ft 109 kts 66°
2026-05-07 19:37 46.43278 6.61404 4939 ft 107 kts 66°
2026-05-07 19:37 46.43588 6.62382 5183 ft 106 kts 66°
2026-05-07 19:37 46.43908 6.63379 5316 ft 116 kts 66°
2026-05-07 19:38 46.44150 6.64564 5329 ft 129 kts 80°
2026-05-07 19:38 46.44299 6.65899 5328 ft 137 kts 81°
2026-05-07 19:38 46.44457 6.67287 5328 ft 142 kts 81°
2026-05-07 19:38 46.44621 6.68705 5329 ft 143 kts 79°
2026-05-07 19:39 46.44871 6.70107 5329 ft 144 kts 75°
2026-05-07 19:39 46.45277 6.71436 5326 ft 145 kts 62°
2026-05-07 19:39 46.45764 6.72720 5333 ft 145 kts 62°
2026-05-07 19:39 46.46251 6.74005 5332 ft 145 kts 62°
2026-05-07 19:40 46.46739 6.75291 5332 ft 146 kts 62°
2026-05-07 19:40 46.47226 6.76584 5330 ft 146 kts 62°
2026-05-07 19:40 46.47714 6.77879 5330 ft 147 kts 62°
2026-05-07 19:40 46.48205 6.79176 5328 ft 146 kts 62°
2026-05-07 19:41 46.48613 6.80484 5326 ft 144 kts 73°
2026-05-07 19:41 46.48765 6.81914 5323 ft 144 kts 88°
2026-05-07 19:41 46.48767 6.83376 5330 ft 146 kts 90°
2026-05-07 19:41 46.48946 6.84806 5311 ft 148 kts 59°
2026-05-07 19:42 46.49681 6.85833 5307 ft 148 kts 36°
2026-05-07 19:42 46.50540 6.86635 5319 ft 147 kts 33°
2026-05-07 19:42 46.51399 6.87459 5320 ft 149 kts 35°
2026-05-07 19:42 46.52232 6.88358 5321 ft 150 kts 37°
2026-05-07 19:43 46.53079 6.89237 5322 ft 150 kts 34°
2026-05-07 19:43 46.53956 6.90058 5322 ft 150 kts 33°
2026-05-07 19:43 46.54839 6.90860 5323 ft 150 kts 32°
2026-05-07 19:43 46.55678 6.91612 5319 ft 132 kts 32°
2026-05-07 19:44 46.56436 6.92355 5320 ft 131 kts 33°
2026-05-07 19:44 46.57213 6.93075 5319 ft 133 kts 32°
2026-05-07 19:44 46.58008 6.93785 5319 ft 135 kts 32°
2026-05-07 19:44 46.58805 6.94501 5318 ft 134 kts 33°
2026-05-07 19:45 46.59577 6.95242 5319 ft 132 kts 34°
2026-05-07 19:45 46.60273 6.95916 5314 ft 106 kts 34°
2026-05-07 19:45 46.60814 6.96436 5299 ft 82 kts 33°
2026-05-07 19:45 46.61254 6.96953 5103 ft 81 kts 56°
2026-05-07 19:46 46.61334 6.97721 4913 ft 81 kts 103°
2026-05-07 19:46 46.61100 6.98477 4686 ft 85 kts 110°
2026-05-07 19:46 46.60894 6.99289 4504 ft 86 kts 110°
2026-05-07 19:46 46.60686 7.00099 4343 ft 84 kts 110°
2026-05-07 19:47 46.60489 7.00860 4336 ft 81 kts 110°
2026-05-07 19:47 46.60288 7.01625 4340 ft 81 kts 109°
2026-05-07 19:47 46.60084 7.02398 4343 ft 82 kts 110°
2026-05-07 19:47 46.59879 7.03179 4340 ft 84 kts 110°
2026-05-07 19:48 46.59672 7.03976 4341 ft 85 kts 110°
2026-05-07 19:48 46.59592 7.04814 4343 ft 85 kts 92°
2026-05-07 19:48 46.59557 7.05674 4343 ft 85 kts 92°
2026-05-07 19:48 46.59522 7.06539 4342 ft 86 kts 93°
2026-05-07 19:49 46.59491 7.07408 4340 ft 86 kts 92°
2026-05-07 19:49 46.59458 7.08279 4342 ft 86 kts 93°
2026-05-07 19:49 46.59424 7.09150 4343 ft 86 kts 92°
2026-05-07 19:49 46.59459 7.10007 4324 ft 86 kts 59°
2026-05-07 19:50 46.59983 7.10120 4281 ft 90 kts 328°
2026-05-07 19:50 46.60409 7.09395 4124 ft 104 kts 282°
2026-05-07 19:50 46.60200 7.08375 3966 ft 112 kts 226°
2026-05-07 19:50 46.59553 7.07714 3825 ft 116 kts 214°
2026-05-07 19:51 46.58859 7.07111 3658 ft 118 kts 190°
2026-05-07 19:51 46.58038 7.07189 3499 ft 120 kts 172°
2026-05-07 19:51 46.57202 7.07312 3326 ft 121 kts 169°
2026-05-07 19:51 46.56718 7.07970 3197 ft 93 kts 99°
2026-05-07 19:52 46.56943 7.08714 3120 ft 83 kts 39°
2026-05-07 19:52 46.57460 7.09036 2922 ft 84 kts 21°
2026-05-07 19:52 46.58011 7.09267 2681 ft 77 kts 18°
2026-05-07 19:52 46.58528 7.09424 2499 ft 77 kts 11°
2026-05-07 19:53 46.59041 7.09493 2323 ft 71 kts
2026-05-07 19:53 46.59450 7.09427 2289 ft 33 kts 353°
2026-05-07 19:53 46.59488 7.09420 2289 ft 0 kts 353°
2026-05-07 19:54 46.59492 7.09420 2291 ft 3 kts 354°
2026-05-07 19:54 46.59528 7.09417 2292 ft 1 kts 357°
2026-05-07 19:54 46.59534 7.09416 2292 ft 0 kts 355°
2026-05-07 19:55 46.59540 7.09396 2291 ft 5 kts 239°
2026-05-07 19:55 46.59520 7.09352 2289 ft 4 kts 237°
2026-05-07 19:55 46.59491 7.09349 2289 ft 5 kts 96°
2026-05-07 19:55 46.59491 7.09354 2289 ft 0 kts 82°